VEPTVNKT

Guest
Details From VEPT - PATNA
To VNKT - Kathmandu Tribhuvan Intl
Flight Number -
Tags generated
Created
Modified
Stats Distance 129 nm / 239 km
Max Altitude 14,600 ft / 4,450 m
Waypoints 4
Social Downloads 2
Likes 0
Share VATSIM

Download

Looking for another format? Having issues loading an existing format? Contact us
Advertisement - Login to hide

Notes

Basic altitude profile: - Ascent Rate: 2500ft/min - Ascent Speed: 250kts - Cruise Altitude: 35000ft - Cruise Speed: 420kts - Descent Rate: 1500ft/min - Descent Speed: 250kts Options: - Use NATs: yes - Use PACOTS: yes - Use low airways: yes - Use high airways: yes

Route

VEPT PPT G336 DODUD VNKT

ID Type Via Altitude Latitude Longitude Leg Dist Tot Dist Heading (true) Name
O VEPT APT - 0 ft / 0 m 25.59132˚ 85.08799˚ - 0 nm - PATNA
PPT VOR - 0 ft / 0 m 25.59042˚ 85.08992˚ 0 nm 0 nm 117° / 117° PATNA VOR-DME
DODUD FIX G336 (AWY-LO) 14,600 ft / 4,450 m 26.60033˚ 85.01436˚ 60 nm 60 nm 356° / 356° -
O VNKT APT - 0 ft / 0 m 27.69658˚ 85.35910˚ 68 nm 129 nm 16° / 16° Kathmandu Tribhuvan Intl

Altitude Profile

Advertisement - Login to hide

VEPT

Details ICAO VEPT (PAT)
Name PATNA
Region India
Timezone Asia/Kolkata (UTC+5.5)
Stats Elevation 170 ft / 52 m (AMSL)
Location 25.591317° 85.087990°
Runways 1
Magnetic Variation 0.270° E

METAR

VEPT 230400Z 10010KT 3000 HZ FEW020 SCT100 31/26 Q1004 NOSIG

Decode

TAF

TAF VEPT 222300Z 2300/2406 09006KT 3500 HZ SCT020 BKN100 BECMG 2304/2306 4000 HZ BECMG 2310/2312 5000 HZ SCT018 FEW030CB BKN100 BECMG 2316/2318 10004KT 3500 HZ SCT020 BKN100 BECMG 2400/2402 3000 HZ BECMG 2404/2406 09008KT 4000 HZ FEW020 SCT100

Decode

Departure Runways

ID Width Length Bearing (true) Bearing (mag) Surface Threshold Offset Overrun Length
07 148 ft / 45 m 6,411 ft / 1,954 m 68.24° 67.97° Asphalt 920 ft / 280 m 975 ft / 297 m
25 148 ft / 45 m 6,411 ft / 1,954 m 248.25° 247.98° Asphalt 440 ft / 134 m 310 ft / 94 m

VNKT

Details ICAO VNKT (KTM)
Name Kathmandu Tribhuvan Intl
Region Nepal
Timezone Asia/Kathmandu (UTC+5.8)
Stats Elevation 4,390 ft / 1,338 m (AMSL)
Location 27.696583° 85.359100°
Runways 1
Magnetic Variation 0.514° E

METAR

VNKT 230350Z VRB02KT 6000 FEW015 SCT030 BKN100 26/20 Q1016 NOSIG

Decode

TAF

TAF TAF VNKT 222300Z 2300/2324 00000KT 3000 BR FEW010 SCT025 BKN100 PROB30 2301/2303 1500 -RA/BR BECMG 2304/2305 14005KT 6000 FEW015 BECMG 2307/2309 26008KT 8000 FEW020 SCT030 BKN100 PROB40 2308/2314 28012KT 4000 -TSRA FEW025CB BECMG 2314/2315 20003KT 6000 FEW020 SCT030

Decode

Destination Runways

ID Width Length Bearing (true) Bearing (mag) Surface Threshold Offset Overrun Length
02 148 ft / 45 m 10,017 ft / 3,053 m 21.50° 20.99° Asphalt 0 ft / 0 m 0 ft / 0 m
20 148 ft / 45 m 10,017 ft / 3,053 m 201.51° 201.00° Asphalt 400 ft / 122 m 0 ft / 0 m

Popular Alternatives